Home > Weather > Witzenhausen > Past weeks

Flag for Germany Past Weather in Witzenhausen, Hesse, Germany — Yesterday and Last 2 Weeks

Now
61 °F

Overcast.


Feels Like: 61 °F
Forecast: 53 / 71 °F
Wind: 6 mph from West

Location: Kassel / Calden

Current Time: Jun 1, 2016 at 9:36:01 AM

Latest Report: Jun 1, 2016 at 8:50 AM


Visibility: 6 mi

Pressure: 29.89 "Hg

Humidity: 100%

Dew Point: 61 °F

Location of WitzenhausenLocation

Past Weather in Witzenhausen — Graph

°F

Witzenhausen Temperature Yesterday

Maximum temperature yesterday: 72 °F (at 1:50 PM)
Minimum temperature yesterday: 59 °F (at 7:50 AM)
Average temperature yesterday: 67 °F

High & Low Weather Summary for the Past Weeks

 TemperatureHumidityPressure
High79 °F (May 22, 2:20 PM)100% (May 19, 7:50 PM)30.07 "Hg (May 19, 7:50 PM)
Low45 °F (May 20, 5:50 AM)41% (May 22, 6:50 PM)29.59 "Hg (May 30, 8:20 AM)
Average61 °F73%29.90 "Hg
* Reported May 17 8:20 AM — Jun 1 8:20 AM, Witzenhausen, Weather by CustomWeather, © 2016

Note: Actual official high and low records may vary slightly from our data, if they occured in-between our weather recording intervals... More about our weather records

Advertising

Witzenhausen Weather History for the Previous 24 Hours

Scroll right to see more
 ConditionsComfort  
Time TempWeatherWind HumidityBarometerVisibility
8:20 AM
Wed, Jun 1
61 °FOvercast.6 mph100%29.89 "Hg6 mi
7:50 AM61 °FOvercast.3 mph100%29.89 "Hg6 mi
7:20 AM59 °FOvercast.5 mph100%29.89 "Hg6 mi
6:50 AM59 °FMostly cloudy.5 mph100%29.89 "Hg6 mi
9:20 PM
Tue, May 31
64 °FSunny.6 mph73%29.89 "Hg10 mi
8:50 PM66 °FSunny.6 mph68%29.89 "Hg10 mi
8:20 PM66 °FSunny.5 mph68%29.89 "Hg10 mi
7:50 PM68 °FSunny.6 mph60%29.89 "Hg10 mi
7:20 PM70 °FPartly sunny.7 mph57%29.89 "HgN/A
6:50 PM70 °FScattered clouds.5 mph57%29.89 "HgN/A
6:20 PM70 °FScattered clouds.6 mph57%29.86 "HgN/A
5:50 PM70 °FPassing clouds.5 mph60%29.86 "HgN/A
5:20 PM70 °FScattered clouds.3 mph60%29.86 "HgN/A
4:50 PM68 °FScattered clouds.5 mph60%29.86 "HgN/A
4:20 PM68 °FPartly sunny.6 mph64%29.86 "HgN/A
3:50 PM68 °FPartly sunny.5 mph60%29.86 "HgN/A
2:50 PM68 °FPartly sunny.6 mph60%29.86 "HgN/A
2:20 PM70 °FPartly sunny.5 mph57%29.86 "HgN/A
1:50 PM72 °FPartly sunny.6 mph53%29.86 "HgN/A
1:20 PM70 °FBroken clouds.6 mph57%29.86 "HgN/A
12:50 PM68 °FBroken clouds.6 mph64%29.86 "HgN/A
12:20 PM68 °FBroken clouds.8 mph56%29.86 "HgN/A
11:50 AM66 °FBroken clouds.8 mph60%29.83 "HgN/A
11:20 AM68 °FBroken clouds.8 mph60%29.83 "HgN/A
10:50 AM66 °FBroken clouds.8 mph64%29.83 "HgN/A
10:20 AM63 °FScattered clouds.9 mph73%29.83 "HgN/A
9:20 AM63 °FScattered clouds.10 mph77%29.83 "HgN/A
Weather by CustomWeather, © 2016

See weather overviewHow to use our weather pages